Weather History for North Adams, MA

Change the Weather History Date:

Saturday, September 7, 2013

  Actual Average Record
Temperature  
Mean Temperature 58 °F -  
Max Temperature 73 °F 73 °F 90 °F (2007)
Min Temperature 43 °F 50 °F 42 °F (2000)
Degree Days  
Heating Degree Days 7    
Growing Degree Days 8 (Base 50)    
Moisture  
Dew Point 48 °F    
Average Humidity 74    
Maximum Humidity 96    
Minimum Humidity 34    
Precipitation  
Precipitation 0.02 in - - ()
Sea Level Pressure  
Sea Level Pressure 30.02 in    
Wind  
Wind Speed 1 mph (West)    
Max Wind Speed 7 mph    
Max Gust Speed -    
Visibility 10 miles    
Events Rain    
Averages and records for this station are not official NWS values.
T = Trace of Precipitation, MM = Missing Value Source: NWS Daily Summary

Daily Weather History Graph

Daily Weather History Graph

Search for Another Location

Airport:

Trip Planner

Search our weather history database for the weather conditions in past years. The results will help you decide how hot, cold, wet, or windy it might be!

Date:

Astronomy

Sep. 07, 2013 Rise Set
Actual Time 6:24 AM EDT 7:16 PM EDT
Civil Twilight 5:55 AM EDT 7:44 PM EDT
Nautical Twilight 5:21 AM EDT 8:18 PM EDT
Astronomical Twilight 4:45 AM EDT 8:54 PM EDT
Moon 8:39 AM EDT (9/7) 8:08 PM EDT (9/7)
Length of Visible Light 13h 49m
Length of Day
12h 52m
Waxing Crescent, 5% of the Moon is Illuminated
Sep 7
Waxing Crescent
Sep 12
First Quarter
Sep 19
Full
Sep 26
Last Quarter
Oct 4
New

Hourly Weather History & Observations

Time (EDT) Temp. Dew Point Humidity Pressure Visibility Wind Dir Wind Speed Gust Speed Precip Events Conditions
12:52 AM 45.0 °F 43.0 °F 93% 30.15 in 10.0 mi Calm Calm - N/A   Clear
1:52 AM 45.0 °F 43.0 °F 93% 30.13 in 10.0 mi Calm Calm - N/A   Clear
2:52 AM 45.0 °F 42.1 °F 90% 30.12 in 10.0 mi Calm Calm - N/A   Clear
3:52 AM 44.1 °F 42.1 °F 93% 30.13 in 10.0 mi Calm Calm - N/A   Clear
4:52 AM 43.0 °F 41.0 °F 93% 30.11 in 10.0 mi Calm Calm - N/A   Scattered Clouds
5:52 AM 43.0 °F 41.0 °F 93% 30.11 in 10.0 mi Calm Calm - N/A   Clear
6:52 AM 43.0 °F 41.0 °F 93% 30.11 in 10.0 mi Calm Calm - N/A   Clear
7:52 AM 48.0 °F 44.1 °F 86% 30.10 in 10.0 mi Calm Calm - N/A   Clear
8:52 AM 51.1 °F 44.1 °F 77% 30.09 in 10.0 mi Calm Calm - N/A   Partly Cloudy
9:52 AM 57.0 °F 45.0 °F 64% 30.08 in 10.0 mi Calm Calm - N/A   Mostly Cloudy
10:52 AM 66.9 °F 44.1 °F 44% 30.05 in 10.0 mi Calm Calm - N/A   Clear
11:52 AM 71.1 °F 48.0 °F 44% 30.03 in 10.0 mi North 4.6 mph - N/A   Partly Cloudy
12:52 PM 72.0 °F 45.0 °F 38% 30.00 in 10.0 mi Calm Calm - N/A   Scattered Clouds
1:52 PM 72.0 °F 42.1 °F 34% 29.97 in 10.0 mi SW 6.9 mph - N/A   Clear
2:52 PM 73.0 °F 44.1 °F 35% 29.95 in 10.0 mi West 4.6 mph - N/A   Clear
3:52 PM 71.1 °F 46.0 °F 41% 29.95 in 10.0 mi West 3.5 mph - N/A   Clear
4:52 PM 68.0 °F 50.0 °F 52% 29.95 in 10.0 mi Calm Calm - N/A   Scattered Clouds
5:52 PM 66.0 °F 54.0 °F 65% 29.95 in 10.0 mi Calm Calm - 0.00 in   Overcast
6:52 PM 62.1 °F 57.9 °F 86% 29.93 in 10.0 mi Calm Calm - 0.00 in   Overcast
7:52 PM 61.0 °F 57.9 °F 90% 29.93 in 10.0 mi Calm Calm - N/A   Overcast
8:52 PM 60.1 °F 57.9 °F 93% 29.94 in 10.0 mi Calm Calm - 0.00 in Rain Light Rain
9:52 PM 59.0 °F 57.9 °F 96% 29.94 in 10.0 mi Calm Calm - 0.01 in   Overcast
10:52 PM 59.0 °F 57.0 °F 93% 29.91 in 8.0 mi Calm Calm - 0.01 in Rain Light Rain
11:52 PM 59.0 °F 57.0 °F 93% 29.89 in 10.0 mi Calm Calm - 0.00 in   Mostly Cloudy